User: anonymous   Login
Location: Byszew
(52.1813°N, 19.2693°E)
Time: 15:10:24
(UTC+00:00)
Language:

USA 245 - Orbit

View from above orbital plane
View from above orbital plane
View from above satellite
View from above satellite

Ground track
Ground track

The orbit data is extracted from the following two-line orbital elements,

1 39232U 13043A   21130.80009805 0.00010000  00000-0  10192-3 0    07
2 39232  97.8873 194.0004 0512611  52.3714 307.6284 14.81187037    09
Epoch (UTC): 10 May 2021 19:12:08
Eccentricity: 0.0512611
inclination: 97.8873°
perigee height: 266 km
apogee height: 984 km
right ascension of ascending node: 194.0004°
argument of perigee: 52.3714°
revolutions per day: 14.81187037
mean anomaly at epoch: 307.6284°
orbit number at epoch: 0

The dashed part of the orbit path shows where the satellite is in the earth's shadow,  

DLR